| time (UTC) | temp C | wind direction | speed KPH | gust KPH | rain 1hr cm | rain 24hr cm | rain mn cm | humidity % | barometer mb |
| 20260504050020 | 7 | 196 | 0.0 | 0.0 | 0.00 | 0.00 | 0.00 | 61 | 1015.2 |
| 20260504044523 | 7 | 196 | 0.0 | 0.0 | 0.00 | 0.00 | 0.00 | 61 | 1015.2 |
| 20260504043035 | 7 | 196 | 0.0 | 0.0 | 0.00 | 0.00 | 0.00 | 62 | 1015.1 |
| 20260504041509 | 7 | 196 | 0.0 | 0.0 | 0.00 | 0.00 | 0.00 | 62 | 1015.1 |
| 20260504040013 | 7 | 196 | 0.0 | 0.0 | 0.00 | 0.00 | 0.00 | 60 | 1015.0 |
| 20260504034507 | 8 | 200 | 0.0 | 1.6 | 0.00 | 0.00 | 0.00 | 60 | 1014.9 |
| 20260504033024 | 8 | 187 | 0.0 | 1.6 | 0.00 | 0.00 | 0.00 | 58 | 1014.9 |
| 20260504031523 | 8 | 212 | 0.0 | 1.6 | 0.00 | 0.00 | 0.00 | 57 | 1014.7 |
| 20260504030015 | 8 | 225 | 0.0 | 0.0 | 0.00 | 0.00 | 0.00 | 57 | 1014.7 |
| 20260504024517 | 8 | 225 | 0.0 | 0.0 | 0.00 | 0.00 | 0.00 | 56 | 1014.8 |
| 20260504023014 | 9 | 225 | 0.0 | 0.0 | 0.00 | 0.00 | 0.00 | 53 | 1014.6 |
| 20260504021510 | 9 | 228 | 0.0 | 0.0 | 0.00 | 0.00 | 0.00 | 53 | 1014.7 |
| 20260504020014 | 10 | 228 | 0.0 | 0.0 | 0.00 | 0.00 | 0.00 | 52 | 1014.7 |
| 20260504014519 | 10 | 228 | 0.0 | 0.0 | 0.00 | 0.00 | 0.00 | 51 | 1014.6 |
| 20260504013031 | 10 | 228 | 0.0 | 0.0 | 0.00 | 0.00 | 0.00 | 48 | 1014.5 |
| 20260504011523 | 11 | 228 | 0.0 | 0.0 | 0.00 | 0.00 | 0.00 | 48 | 1014.4 |
| 20260504010019 | 11 | 228 | 0.0 | 0.0 | 0.00 | 0.00 | 0.00 | 49 | 1014.3 |
| 20260504004514 | 11 | 228 | 0.0 | 1.6 | 0.00 | 0.00 | 0.00 | 47 | 1014.2 |
| 20260504003016 | 11 | 232 | 0.0 | 1.6 | 0.00 | 0.00 | 0.00 | 46 | 1014.0 |
| 20260504001519 | 11 | 219 | 0.0 | 1.6 | 0.00 | 0.00 | 0.00 | 46 | 1013.8 |
| 20260504000015 | 12 | 211 | 0.0 | 1.6 | 0.00 | 0.00 | 0.00 | 45 | 1013.8 |
| 20260503234523 | 12 | 242 | 0.0 | 3.2 | 0.00 | 0.00 | 0.00 | 42 | 1013.7 |
| 20260503233021 | 13 | 249 | 0.0 | 11.3 | 0.00 | 0.00 | 0.00 | 41 | 1013.4 |
| 20260503231519 | 13 | 246 | 1.6 | 16.1 | 0.00 | 0.00 | 0.00 | 40 | 1013.5 |
| 20260503230021 | 13 | 255 | 3.2 | 14.5 | 0.00 | 0.00 | 0.00 | 41 | 1013.5 |
| 20260503224504 | 14 | 263 | 1.6 | 20.9 | 0.00 | 0.00 | 0.00 | 40 | 1013.6 |
| 20260503223009 | 14 | 280 | 9.7 | 19.3 | 0.00 | 0.00 | 0.00 | 38 | 1013.4 |
| 20260503221508 | 14 | 268 | 6.4 | 27.4 | 0.00 | 0.00 | 0.00 | 38 | 1013.5 |
| 20260503220004 | 14 | 251 | 6.4 | 16.1 | 0.00 | 0.00 | 0.00 | 37 | 1013.5 |
| 20260503214503 | 14 | 235 | 4.8 | 22.5 | 0.00 | 0.00 | 0.00 | 38 | 1013.4 |
| 20260503213007 | 14 | 251 | 12.9 | 37.0 | 0.00 | 0.00 | 0.00 | 38 | 1013.4 |
| 20260503211508 | 14 | 247 | 14.5 | 22.5 | 0.00 | 0.00 | 0.00 | 36 | 1013.4 |
| 20260503210005 | 13 | 261 | 8.0 | 29.0 | 0.00 | 0.00 | 0.00 | 38 | 1013.4 |
| 20260503204504 | 14 | 287 | 17.7 | 30.6 | 0.00 | 0.00 | 0.00 | 35 | 1013.4 |
| 20260503203013 | 14 | 273 | 14.5 | 29.0 | 0.00 | 0.00 | 0.00 | 37 | 1013.3 |
| 20260503201507 | 13 | 298 | 9.7 | 22.5 | 0.00 | 0.00 | 0.00 | 36 | 1013.6 |
| 20260503200013 | 13 | 250 | 6.4 | 22.5 | 0.00 | 0.00 | 0.00 | 36 | 1013.7 |
| 20260503194531 | 13 | 281 | 16.1 | 32.2 | 0.00 | 0.00 | 0.00 | 37 | 1013.9 |
| 20260503193009 | 13 | 255 | 17.7 | 30.6 | 0.00 | 0.00 | 0.00 | 37 | 1014.3 |
| 20260503191508 | 13 | 277 | 20.9 | 37.0 | 0.00 | 0.00 | 0.00 | 39 | 1014.3 |
| 20260503190006 | 13 | 274 | 19.3 | 32.2 | 0.00 | 0.00 | 0.00 | 38 | 1014.4 |
| 20260503184522 | 13 | 270 | 17.7 | 33.8 | 0.00 | 0.00 | 0.00 | 40 | 1014.5 |
| 20260503183021 | 13 | 281 | 19.3 | 33.8 | 0.00 | 0.00 | 0.00 | 41 | 1014.6 |
| 20260503181518 | 12 | 240 | 12.9 | 27.4 | 0.00 | 0.00 | 0.00 | 40 | 1014.7 |
| 20260503180020 | 11 | 240 | 9.7 | 30.6 | 0.00 | 0.00 | 0.00 | 47 | 1014.7 |
| 20260503174508 | 11 | 277 | 11.3 | 24.1 | 0.00 | 0.00 | 0.00 | 41 | 1014.7 |
| 20260503173008 | 11 | 281 | 12.9 | 37.0 | 0.00 | 0.00 | 0.00 | 43 | 1015.0 |
| 20260503171506 | 12 | 294 | 19.3 | 32.2 | 0.00 | 0.00 | 0.00 | 41 | 1015.0 |
| 20260503081525 | 5 | 273 | 11.3 | 16.1 | 0.00 | 0.00 | 0.00 | 72 | 1012.9 |